sat.trackr.live / text

‹ back to catalog

STARLINK-31563

NORAD 59190 · 2024-045N

PAYLOAD ACTIVE UNKNOWN

§ Identity

Operator
Country
US
Launch date
2024-03-10
Launch site
AFETR
Launch vehicle
Mass (kg)
RCS (m²)

Purposes: comms

External: N2YO · Heavens-Above · Gunter

§ Orbital elements

Epoch: 2026-09-20T14:32:41.494848Z

Period
94.27 min
Inclination
43.0033°
Eccentricity
0.0001416
Mean motion
15.27573166 rev/d
Perigee alt
482.1 km
Apogee alt
484.0 km
Semi-major
6,861.2 km
B*
-8.3618e-6
RAAN
71.5550°
Arg perigee
267.2423°
Mean anomaly
92.8267°
Rev number
14,297

§ Raw data

STARLINK-315631 59190U 24045N   26263.60603582 -.00000492  00000+0 -83618-5 0  99952 59190  43.0033  71.5550 0001416 267.2423  92.8267 15.27573166142970

JSON: /api/v1/satellites/59190 · /tle

For live sub-satellite position, see the globe view (requires WebGL).

§ Visibility from observer

Set your observer location to see the next 7 days of passes ≥ 10°. The values pass through the URL so the page stays shareable.

No JS? Fill the form by hand. The geolocation button needs JavaScript.